ACA1363 TNCM-CYUL

Flight info

Callsign ACA1363
Flight time N/A
Altitude 38000
Route MODOR2 TRNKY DCT ODUCA L459 KEEKA/M085F380 L459 TALSU/M085F400 L459 DARUX L456 MARIG/N0489F400 Y483 ISLES DCT NTMEG DCT CAM/N0494F410 Q133 PBERG CARTR5
Aircraft B789/H-SDE1E2E3FGHIJ2J3J4J5M1RWXY/LB1D1

Departure

Time N/A
Airport Princess Juliana International Airport (TNCM)

Arrival

Time 2026-04-30 20:00
Airport Montreal / Pierre Elliott Trudeau International Airport (CYUL)
Time Latitude Longitude Altitude Speed Heading
2026-04-30 18:24 35.13317 -68.48644 39851 ft 446 kts 316°
2026-04-30 18:24 35.15782 -68.50932 39853 ft 445 kts 316°
2026-04-30 18:25 35.20721 -68.55521 39862 ft 446 kts 316°
2026-04-30 18:25 35.28147 -68.62438 39860 ft 447 kts 316°
2026-04-30 18:26 35.35636 -68.69429 39865 ft 452 kts 316°
2026-04-30 18:27 35.43088 -68.76402 39862 ft 450 kts 316°
2026-04-30 18:28 35.50554 -68.83403 39855 ft 450 kts 316°
2026-04-30 18:28 35.58028 -68.90432 39881 ft 453 kts 316°
2026-04-30 18:29 35.68081 -68.99907 39843 ft 455 kts 316°
2026-04-30 18:30 35.78096 -69.09382 39854 ft 455 kts 316°
2026-04-30 18:31 35.85625 -69.16524 39840 ft 455 kts 316°
2026-04-30 18:32 35.93199 -69.23728 39850 ft 460 kts 316°
2026-04-30 18:33 36.00761 -69.30935 39849 ft 459 kts 316°
2026-04-30 18:33 36.08347 -69.38186 39852 ft 459 kts 316°
2026-04-30 18:34 36.16250 -69.44933 39852 ft 471 kts 330°
2026-04-30 18:35 36.22614 -69.47303 39852 ft 482 kts 341°
2026-04-30 18:35 36.29141 -69.49076 39849 ft 482 kts 341°
2026-04-30 18:36 36.38963 -69.51748 39873 ft 481 kts 341°
2026-04-30 18:37 36.48741 -69.54411 39841 ft 478 kts 341°
2026-04-30 18:37 36.55246 -69.56191 39844 ft 479 kts 341°
2026-04-30 18:38 36.61731 -69.57965 39845 ft 480 kts 341°
2026-04-30 18:38 36.68259 -69.59756 39847 ft 481 kts 341°
2026-04-30 18:39 36.74802 -69.61552 39852 ft 481 kts 341°
2026-04-30 18:39 36.81355 -69.63356 39850 ft 482 kts 341°
2026-04-30 18:40 36.87911 -69.65162 39871 ft 482 kts 341°
2026-04-30 18:40 36.94430 -69.66962 39846 ft 480 kts 341°
2026-04-30 18:41 37.00944 -69.68765 39839 ft 479 kts 341°
2026-04-30 18:41 37.07446 -69.70566 39834 ft 478 kts 341°
2026-04-30 18:42 37.13951 -69.72372 39846 ft 479 kts 340°
2026-04-30 18:42 37.23696 -69.75084 39851 ft 481 kts 340°
2026-04-30 18:45 37.59593 -69.85132 39854 ft 479 kts 340°
2026-04-30 18:46 37.66083 -69.86960 39830 ft 483 kts 340°
2026-04-30 18:46 37.72672 -69.88819 39843 ft 485 kts 340°
2026-04-30 18:47 37.79254 -69.90678 39838 ft 484 kts 340°
2026-04-30 18:47 37.85831 -69.92541 39835 ft 484 kts 340°
2026-04-30 18:48 37.92404 -69.94404 39831 ft 484 kts 340°
2026-04-30 18:48 37.98976 -69.96272 39830 ft 484 kts 340°
2026-04-30 18:49 38.05546 -69.98142 39829 ft 484 kts 340°
2026-04-30 18:49 38.12118 -70.00018 39834 ft 485 kts 340°
2026-04-30 18:50 38.18671 -70.01893 39840 ft 486 kts 340°
2026-04-30 18:50 38.25271 -70.03777 39837 ft 487 kts 340°
2026-04-30 18:51 38.31693 -70.06215 39843 ft 475 kts 326°
2026-04-30 18:51 38.36273 -70.09830 39842 ft 460 kts 313°
2026-04-30 18:52 38.41080 -70.15158 39834 ft 458 kts 312°
2026-04-30 18:52 38.45861 -70.20532 39847 ft 458 kts 311°
2026-04-30 18:53 38.50659 -70.25922 39835 ft 460 kts 311°
2026-04-30 18:53 38.55462 -70.31331 39835 ft 460 kts 311°
2026-04-30 18:54 38.60277 -70.36764 39823 ft 462 kts 311°
2026-04-30 18:54 38.65066 -70.42175 39824 ft 462 kts 311°
2026-04-30 18:55 38.69903 -70.47667 39829 ft 467 kts 311°
2026-04-30 18:55 38.77150 -70.55877 39822 ft 462 kts 311°
2026-04-30 18:56 38.84381 -70.64107 39829 ft 464 kts 311°
2026-04-30 18:57 38.91632 -70.72387 39819 ft 465 kts 311°
2026-04-30 18:57 38.96467 -70.77919 39823 ft 466 kts 311°
2026-04-30 18:58 39.03696 -70.86210 39822 ft 466 kts 311°
2026-04-30 18:59 39.10969 -70.94577 39820 ft 468 kts 311°
2026-04-30 19:00 39.20662 -71.05763 39816 ft 467 kts 311°
2026-04-30 19:01 39.30314 -71.16945 39812 ft 466 kts 311°
2026-04-30 19:02 39.37505 -71.25304 39853 ft 466 kts 311°
2026-04-30 19:03 39.48385 -71.34846 39834 ft 485 kts 327°
2026-04-30 19:04 39.60593 -71.42352 39840 ft 485 kts 327°
2026-04-30 19:05 39.72780 -71.49876 39831 ft 483 kts 327°
2026-04-30 19:06 39.84904 -71.57395 39840 ft 484 kts 327°
2026-04-30 19:06 39.94066 -71.63094 39845 ft 487 kts 327°
2026-04-30 19:07 40.03210 -71.68800 39845 ft 487 kts 327°
2026-04-30 19:08 40.15465 -71.76449 39843 ft 487 kts 327°
2026-04-30 19:09 40.24634 -71.82239 39842 ft 487 kts 327°
2026-04-30 19:09 40.30714 -71.86063 39846 ft 487 kts 327°
2026-04-30 19:10 40.42977 -71.93813 39836 ft 490 kts 327°
2026-04-30 19:11 40.52187 -71.99654 39834 ft 490 kts 327°
2026-04-30 19:12 40.58329 -72.03561 39846 ft 491 kts 327°
2026-04-30 19:12 40.64498 -72.07490 39844 ft 493 kts 327°
2026-04-30 19:13 40.76776 -72.15336 39841 ft 491 kts 327°
2026-04-30 19:14 40.82918 -72.19274 39832 ft 492 kts 328°
2026-04-30 19:14 40.89091 -72.23239 39831 ft 493 kts 327°
2026-04-30 19:15 40.95273 -72.27218 39826 ft 495 kts 328°
2026-04-30 19:15 41.04548 -72.33204 39829 ft 493 kts 328°
2026-04-30 19:16 41.10679 -72.37171 39828 ft 494 kts 328°
2026-04-30 19:17 41.19955 -72.43189 39821 ft 494 kts 328°
2026-04-30 19:17 41.29328 -72.48985 39842 ft 500 kts 334°
2026-04-30 19:18 41.39140 -72.53800 39825 ft 500 kts 334°
2026-04-30 19:19 41.45637 -72.56966 39822 ft 500 kts 334°
2026-04-30 19:19 41.55413 -72.61778 39814 ft 499 kts 334°
2026-04-30 19:20 41.61943 -72.64993 39803 ft 500 kts 334°
2026-04-30 19:21 41.71732 -72.69830 39795 ft 500 kts 334°
2026-04-30 19:22 41.84758 -72.76289 39803 ft 501 kts 334°
2026-04-30 19:23 42.04389 -72.86077 39806 ft 501 kts 334°
2026-04-30 19:24 42.14204 -72.90996 39812 ft 501 kts 334°
2026-04-30 19:25 42.30556 -72.99225 39814 ft 501 kts 334°
2026-04-30 19:26 42.43597 -73.05823 39805 ft 502 kts 334°
2026-04-30 19:27 42.53423 -73.10812 39814 ft 503 kts 334°
2026-04-30 19:28 42.63257 -73.15823 39802 ft 504 kts 334°
2026-04-30 19:29 42.76370 -73.22531 39803 ft 503 kts 334°
2026-04-30 19:30 42.89470 -73.29262 39808 ft 505 kts 334°
2026-04-30 19:31 43.02953 -73.34709 39829 ft 516 kts 352°
2026-04-30 19:31 43.13724 -73.35675 39806 ft 516 kts 352°
2026-04-30 19:32 43.20847 -73.36319 39807 ft 516 kts 352°
2026-04-30 19:32 43.28032 -73.36963 39803 ft 517 kts 352°
2026-04-30 19:33 43.35218 -73.37611 39800 ft 517 kts 352°
2026-04-30 19:33 43.42384 -73.38256 39974 ft 515 kts 352°
2026-04-30 19:34 43.45981 -73.38584 39854 ft 520 kts 352°
2026-04-30 19:34 43.49587 -73.38911 39789 ft 517 kts 353°
2026-04-30 19:35 43.60301 -73.39884 39771 ft 514 kts 352°
2026-04-30 19:35 43.67408 -73.40530 39771 ft 515 kts 352°
2026-04-30 19:36 43.74568 -73.41233 39771 ft 515 kts 351°
2026-04-30 19:36 43.85286 -73.42495 39772 ft 515 kts 352°
2026-04-30 19:37 43.92431 -73.43301 39776 ft 515 kts 351°
2026-04-30 19:37 43.98376 -73.43990 39780 ft 516 kts 352°
2026-04-30 19:38 44.06707 -73.44933 39784 ft 517 kts 352°
2026-04-30 19:38 44.13887 -73.45761 39787 ft 517 kts 352°
2026-04-30 19:39 44.19856 -73.46443 39782 ft 516 kts 352°
2026-04-30 19:39 44.23419 -73.46853 39200 ft 515 kts 352°
2026-04-30 19:39 44.27011 -73.47270 38416 ft 515 kts 352°
2026-04-30 19:40 44.30567 -73.47679 37452 ft 506 kts 352°
2026-04-30 19:40 44.34046 -73.48077 36538 ft 498 kts 352°
2026-04-30 19:40 44.37478 -73.48475 35626 ft 492 kts 352°
2026-04-30 19:40 44.40896 -73.48876 34683 ft 495 kts 353°
2026-04-30 19:41 44.44351 -73.49278 33786 ft 500 kts 353°
2026-04-30 19:41 44.47786 -73.49673 32755 ft 503 kts 353°
2026-04-30 19:41 44.51292 -73.50079 31776 ft 512 kts 353°
2026-04-30 19:41 44.54877 -73.50499 30862 ft 519 kts 353°
2026-04-30 19:42 44.58488 -73.50920 30006 ft 519 kts 354°
2026-04-30 19:42 44.62091 -73.51337 29030 ft 518 kts 354°
2026-04-30 19:42 44.65685 -73.51756 28049 ft 516 kts 354°
2026-04-30 19:42 44.69259 -73.52175 27125 ft 514 kts 354°
2026-04-30 19:43 44.72801 -73.52591 26273 ft 505 kts 354°
2026-04-30 19:43 44.76223 -73.52996 25393 ft 483 kts 353°
2026-04-30 19:43 44.79523 -73.53392 24411 ft 470 kts 354°
2026-04-30 19:44 44.85896 -73.54154 22365 ft 456 kts 354°
2026-04-30 19:44 44.89047 -73.54514 21246 ft 450 kts 354°
2026-04-30 19:44 44.92141 -73.54840 20179 ft 443 kts 354°
2026-04-30 19:44 44.95190 -73.55166 19144 ft 436 kts 354°
2026-04-30 19:45 44.98195 -73.55503 18147 ft 430 kts 354°
2026-04-30 19:45 45.01167 -73.55836 17020 ft 425 kts 354°
2026-04-30 19:45 45.04091 -73.56156 15933 ft 416 kts 354°
2026-04-30 19:45 45.06944 -73.56467 14931 ft 407 kts 354°
2026-04-30 19:46 45.09749 -73.56778 13954 ft 400 kts 354°
2026-04-30 19:46 45.12498 -73.57083 12928 ft 393 kts 354°
2026-04-30 19:46 45.15197 -73.57379 11887 ft 384 kts 354°
2026-04-30 19:46 45.17765 -73.57661 11126 ft 365 kts 354°
2026-04-30 19:47 45.20235 -73.57933 10374 ft 348 kts 353°
2026-04-30 19:47 45.21842 -73.58111 9857 ft 338 kts 353°
2026-04-30 19:47 45.24842 -73.58444 9087 ft 311 kts 353°
2026-04-30 19:47 45.26936 -73.58671 8764 ft 290 kts 352°
2026-04-30 19:48 45.28913 -73.58891 7961 ft 284 kts 352°
2026-04-30 19:48 45.30882 -73.59116 7581 ft 279 kts 352°
2026-04-30 19:48 45.32816 -73.59328 7318 ft 278 kts 352°
2026-04-30 19:48 45.34738 -73.59536 7034 ft 276 kts 352°
2026-04-30 19:49 45.36643 -73.59748 6751 ft 274 kts 352°
2026-04-30 19:49 45.40358 -73.59012 6167 ft 280 kts 28°
2026-04-30 19:49 45.41994 -73.57508 5875 ft 280 kts 31°
2026-04-30 19:50 45.43591 -73.55935 5562 ft 278 kts 32°
2026-04-30 19:50 45.45185 -73.54372 5269 ft 276 kts 31°
2026-04-30 19:50 45.46748 -73.52873 4978 ft 266 kts 31°
2026-04-30 19:50 45.48246 -73.51438 4695 ft 259 kts 30°
2026-04-30 19:51 45.49717 -73.50021 4412 ft 251 kts 31°
2026-04-30 19:51 45.51138 -73.48649 4184 ft 241 kts 30°
2026-04-30 19:51 45.52496 -73.47337 3982 ft 232 kts 30°
2026-04-30 19:51 45.53810 -73.46070 4005 ft 228 kts 30°
2026-04-30 19:52 45.55127 -73.44802 3986 ft 228 kts 30°
2026-04-30 19:52 45.56438 -73.43513 3983 ft 230 kts 33°
2026-04-30 19:52 45.57620 -73.41952 3913 ft 232 kts 39°
2026-04-30 19:52 45.58957 -73.40757 3741 ft 226 kts 14°
2026-04-30 19:53 45.60470 -73.40437 3597 ft 217 kts 348°
2026-04-30 19:53 45.61840 -73.41204 3481 ft 209 kts 328°
2026-04-30 19:53 45.63088 -73.42252 3370 ft 207 kts 320°
2026-04-30 19:53 45.63765 -73.43972 3200 ft 202 kts 278°
2026-04-30 19:54 45.63761 -73.45973 3099 ft 200 kts 267°
2026-04-30 19:54 45.63661 -73.47958 3012 ft 200 kts 266°
2026-04-30 19:54 45.63565 -73.49912 2992 ft 201 kts 266°
2026-04-30 19:54 45.63469 -73.51868 2981 ft 188 kts 266°
2026-04-30 19:55 45.63288 -73.53655 2936 ft 180 kts 250°
2026-04-30 19:55 45.62432 -73.54919 2974 ft 179 kts 221°
2026-04-30 19:55 45.61548 -73.56184 2977 ft 180 kts 229°
2026-04-30 19:55 45.60624 -73.57409 2984 ft 181 kts 227°
2026-04-30 19:56 45.59710 -73.58629 2992 ft 182 kts 226°
2026-04-30 19:56 45.58774 -73.59861 2969 ft 181 kts 226°
2026-04-30 19:56 45.57846 -73.61080 2774 ft 180 kts 226°
2026-04-30 19:56 45.56973 -73.62218 2518 ft 162 kts 227°
2026-04-30 19:57 45.56175 -73.63281 2305 ft 153 kts 227°
2026-04-30 19:57 45.55410 -73.64282 2094 ft 143 kts 227°
2026-04-30 19:57 45.54692 -73.65227 1904 ft 138 kts 227°
2026-04-30 19:57 45.53975 -73.66167 1720 ft 140 kts 227°
2026-04-30 19:58 45.53280 -73.67087 1528 ft 135 kts 227°
2026-04-30 19:58 45.52590 -73.67997 1351 ft 134 kts 226°
2026-04-30 19:58 45.51910 -73.68881 1160 ft 130 kts 227°
2026-04-30 19:58 45.51265 -73.69732 989 ft 126 kts 230°
2026-04-30 19:59 45.50597 -73.70621 846 ft 136 kts 228°
2026-04-30 19:59 45.49899 -73.71531 655 ft 132 kts 227°
2026-04-30 19:59 45.48507 -73.73356 225 ft 136 kts 226°
2026-04-30 20:00 45.47863 -73.74212 116 ft 101 kts 222°
2026-04-30 20:00 45.47522 -73.74668 114 ft 52 kts 222°
2026-04-30 20:00 45.47313 -73.74908 117 ft 27 kts 204°
2026-04-30 20:00 45.47140 -73.74974 115 ft 23 kts 193°
2026-04-30 20:01 45.46890 -73.75088 114 ft 18 kts 222°
2026-04-30 20:01 45.46796 -73.75214 109 ft 19 kts 224°
2026-04-30 20:01 45.46698 -73.75342 111 ft 19 kts 223°
2026-04-30 20:02 45.46494 -73.75611 110 ft 21 kts 223°
2026-04-30 20:02 45.46377 -73.75705 108 ft 16 kts 194°
2026-04-30 20:03 45.46153 -73.75722 107 ft 17 kts 179°
2026-04-30 20:03 45.46080 -73.75711 108 ft 6 kts 152°
2026-04-30 20:03 45.46063 -73.75658 110 ft 8 kts 97°
2026-04-30 20:03 45.46059 -73.75567 110 ft 4 kts 114°
2026-04-30 20:04 45.46042 -73.75554 107 ft 4 kts 159°
2026-04-30 20:04 45.46000 -73.75545 110 ft 8 kts 174°
2026-04-30 20:04 45.45988 -73.75544 109 ft 0 kts 176°